IBE402 KBOI-KSLC

Flight info

Callsign IBE402
Flight time 0h 36m
Altitude 29000
Route ROARR BYI SKEES6
Aircraft A359/H-SDE2E3GHIJ3J4J5LM1ORWXY/LB1D1

Departure

Time 2026-05-08 05:36
Airport Boise Air Terminal/Gowen Field (KBOI)

Arrival

Time 2026-05-08 06:12
Airport Salt Lake City International Airport (KSLC)
Time Latitude Longitude Altitude Speed Heading
2026-05-08 05:19 43.56726 -116.22130 2884 ft 0 kts 25°
2026-05-08 05:28 43.56720 -116.22135 2885 ft 4 kts 340°
2026-05-08 05:29 43.56700 -116.22133 2885 ft 4 kts
2026-05-08 05:29 43.56674 -116.22142 2885 ft 4 kts 22°
2026-05-08 05:29 43.56651 -116.22159 2885 ft 4 kts 40°
2026-05-08 05:29 43.56637 -116.22177 2885 ft 1 kts 52°
2026-05-08 05:30 43.56635 -116.22180 2885 ft 0 kts 52°
2026-05-08 05:31 43.56618 -116.22137 2885 ft 14 kts 120°
2026-05-08 05:31 43.56574 -116.22024 2885 ft 0 kts 116°
2026-05-08 05:31 43.56573 -116.22021 2885 ft 1 kts 116°
2026-05-08 05:32 43.56564 -116.21994 2885 ft 6 kts 116°
2026-05-08 05:32 43.56539 -116.21925 2884 ft 10 kts 116°
2026-05-08 05:32 43.56504 -116.21829 2884 ft 6 kts 116°
2026-05-08 05:32 43.56504 -116.21828 2885 ft 0 kts 116°
2026-05-08 05:33 43.56473 -116.21740 2886 ft 18 kts 114°
2026-05-08 05:33 43.56415 -116.21569 2886 ft 21 kts 115°
2026-05-08 05:33 43.56352 -116.21383 2890 ft 22 kts 115°
2026-05-08 05:34 43.56287 -116.21185 2891 ft 24 kts 114°
2026-05-08 05:34 43.56215 -116.20974 2891 ft 26 kts 115°
2026-05-08 05:34 43.56093 -116.20890 2889 ft 21 kts 202°
2026-05-08 05:34 43.55987 -116.20965 2887 ft 0 kts 205°
2026-05-08 05:35 43.55985 -116.20967 2887 ft 6 kts 205°
2026-05-08 05:35 43.55917 -116.21026 2887 ft 5 kts 235°
2026-05-08 05:35 43.55916 -116.21066 2887 ft 6 kts 284°
2026-05-08 05:35 43.55937 -116.21143 2886 ft 12 kts 292°
2026-05-08 05:36 43.56091 -116.21600 2887 ft 107 kts 295°
2026-05-08 05:36 43.56538 -116.22942 3165 ft 181 kts 295°
2026-05-08 05:36 43.57084 -116.24635 4304 ft 208 kts 295°
2026-05-08 05:36 43.57745 -116.26656 5195 ft 248 kts 295°
2026-05-08 05:37 43.58459 -116.28887 6261 ft 255 kts 295°
2026-05-08 05:37 43.59176 -116.31164 6982 ft 261 kts 295°
2026-05-08 05:37 43.59698 -116.33577 7670 ft 268 kts 277°
2026-05-08 05:37 43.59391 -116.36122 8649 ft 275 kts 249°
2026-05-08 05:38 43.58247 -116.38194 10039 ft 279 kts 224°
2026-05-08 05:38 43.56513 -116.39547 11045 ft 298 kts 206°
2026-05-08 05:38 43.54462 -116.40604 11587 ft 332 kts 203°
2026-05-08 05:38 43.52200 -116.41691 12468 ft 351 kts 203°
2026-05-08 05:39 43.49838 -116.42755 13630 ft 363 kts 198°
2026-05-08 05:39 43.47298 -116.43244 14712 ft 377 kts 183°
2026-05-08 05:39 43.44677 -116.42616 15865 ft 389 kts 161°
2026-05-08 05:39 43.42331 -116.40698 17037 ft 398 kts 140°
2026-05-08 05:40 43.40581 -116.37723 18160 ft 407 kts 118°
2026-05-08 05:40 43.39647 -116.34039 19075 ft 412 kts 98°
2026-05-08 05:40 43.39562 -116.30092 19990 ft 415 kts 84°
2026-05-08 05:40 43.39855 -116.26122 20774 ft 420 kts 81°
2026-05-08 05:41 43.40237 -116.22120 21602 ft 425 kts 81°
2026-05-08 05:41 43.40601 -116.18054 22453 ft 430 kts 82°
2026-05-08 05:41 43.40900 -116.13941 23366 ft 434 kts 84°
2026-05-08 05:41 43.41115 -116.09794 24085 ft 440 kts 85°
2026-05-08 05:42 43.41141 -116.05563 24722 ft 447 kts 92°
2026-05-08 05:42 43.40737 -116.01288 25376 ft 454 kts 98°
2026-05-08 05:42 43.40137 -115.97055 26009 ft 460 kts 101°
2026-05-08 05:42 43.39400 -115.92687 26658 ft 466 kts 102°
2026-05-08 05:43 43.38617 -115.88387 27291 ft 472 kts 103°
2026-05-08 05:43 43.37797 -115.83985 27924 ft 478 kts 103°
2026-05-08 05:43 43.36966 -115.79529 28536 ft 484 kts 102°
2026-05-08 05:43 43.36137 -115.75034 28899 ft 486 kts 102°
2026-05-08 05:44 43.35309 -115.70510 28967 ft 487 kts 102°
2026-05-08 05:44 43.33664 -115.61447 28961 ft 490 kts 102°
2026-05-08 05:45 43.32017 -115.52364 28960 ft 490 kts 102°
2026-05-08 05:45 43.30360 -115.43279 28958 ft 490 kts 102°
2026-05-08 05:46 43.27959 -115.34524 28962 ft 493 kts 119°
2026-05-08 05:46 43.24379 -115.26548 28954 ft 494 kts 121°
2026-05-08 05:47 43.20694 -115.18593 28913 ft 494 kts 122°
2026-05-08 05:47 43.16998 -115.10645 28958 ft 495 kts 122°
2026-05-08 05:48 43.13292 -115.02689 28978 ft 496 kts 122°
2026-05-08 05:48 43.09575 -114.94735 29002 ft 496 kts 122°
2026-05-08 05:49 43.06481 -114.88132 29013 ft 495 kts 122°
2026-05-08 05:49 43.02753 -114.80196 29039 ft 495 kts 122°
2026-05-08 05:50 42.99026 -114.72284 29046 ft 495 kts 122°
2026-05-08 05:50 42.95295 -114.64382 29044 ft 494 kts 122°
2026-05-08 05:51 42.91558 -114.56490 29026 ft 494 kts 122°
2026-05-08 05:51 42.87844 -114.48669 29011 ft 494 kts 122°
2026-05-08 05:52 42.84097 -114.40797 29018 ft 494 kts 122°
2026-05-08 05:52 42.80353 -114.32954 28959 ft 494 kts 122°
2026-05-08 05:53 42.76596 -114.25102 28960 ft 494 kts 122°
2026-05-08 05:53 42.72832 -114.17259 28957 ft 494 kts 122°
2026-05-08 05:54 42.69061 -114.09419 28971 ft 494 kts 122°
2026-05-08 05:54 42.65319 -114.01661 28992 ft 494 kts 122°
2026-05-08 05:55 42.61544 -113.93855 29002 ft 494 kts 122°
2026-05-08 05:55 42.57600 -113.86188 29026 ft 495 kts 130°
2026-05-08 05:56 42.52775 -113.79496 29032 ft 497 kts 135°
2026-05-08 05:56 42.47843 -113.72917 29026 ft 498 kts 135°
2026-05-08 05:57 42.42943 -113.66377 29016 ft 497 kts 135°
2026-05-08 05:57 42.38015 -113.59806 28992 ft 499 kts 135°
2026-05-08 05:57 42.35497 -113.56453 28975 ft 517 kts 135°
2026-05-08 05:58 42.32887 -113.52983 28958 ft 535 kts 135°
2026-05-08 05:58 42.30185 -113.49396 28952 ft 549 kts 135°
2026-05-08 05:58 42.27451 -113.45771 28949 ft 552 kts 135°
2026-05-08 05:59 42.21961 -113.38503 28955 ft 553 kts 135°
2026-05-08 05:59 42.16458 -113.31234 28956 ft 553 kts 135°
2026-05-08 06:00 42.10995 -113.24037 28964 ft 552 kts 135°
2026-05-08 06:00 42.05497 -113.16811 28971 ft 552 kts 135°
2026-05-08 06:01 41.99994 -113.09598 28981 ft 553 kts 135°
2026-05-08 06:01 41.94471 -113.02380 28965 ft 554 kts 135°
2026-05-08 06:02 41.88935 -112.95163 28963 ft 554 kts 135°
2026-05-08 06:02 41.83395 -112.87959 28964 ft 554 kts 135°
2026-05-08 06:03 41.77861 -112.80779 28957 ft 554 kts 135°
2026-05-08 06:03 41.72353 -112.73654 28954 ft 555 kts 135°
2026-05-08 06:04 41.66778 -112.66464 28940 ft 555 kts 135°
2026-05-08 06:04 41.61220 -112.59305 28934 ft 554 kts 135°
2026-05-08 06:05 41.55656 -112.52157 28907 ft 554 kts 135°
2026-05-08 06:05 41.50037 -112.45208 28993 ft 552 kts 138°
2026-05-08 06:06 41.44252 -112.38425 28932 ft 555 kts 135°
2026-05-08 06:06 41.38919 -112.30989 28948 ft 554 kts 131°
2026-05-08 06:06 41.36295 -112.27256 28845 ft 546 kts 131°
2026-05-08 06:07 41.33712 -112.23593 27911 ft 542 kts 132°
2026-05-08 06:07 41.31146 -112.19963 26635 ft 534 kts 132°
2026-05-08 06:07 41.28635 -112.16417 25167 ft 0 kts 132°
2026-05-08 06:07 41.26267 -112.17054 24546 ft 516 kts 134°
2026-05-08 06:08 41.24102 -112.13340 22868 ft 503 kts 120°
2026-05-08 06:08 41.22123 -112.09542 21342 ft 502 kts 129°
2026-05-08 06:08 41.19672 -112.06287 20578 ft 494 kts 140°
2026-05-08 06:08 41.16839 -112.03789 19763 ft 485 kts 154°
2026-05-08 06:09 41.13728 -112.02359 18960 ft 475 kts 170°
2026-05-08 06:09 41.10486 -112.01727 17875 ft 465 kts 175°
2026-05-08 06:09 41.07303 -112.01242 15811 ft 457 kts 177°
2026-05-08 06:09 41.04257 -112.01027 13572 ft 439 kts 182°
2026-05-08 06:10 41.01239 -112.00757 12483 ft 418 kts 176°
2026-05-08 06:10 40.98363 -112.00262 10412 ft 422 kts 173°
2026-05-08 06:10 40.95542 -111.99573 8831 ft 401 kts 168°
2026-05-08 06:10 40.92797 -111.99048 7466 ft 399 kts 177°
2026-05-08 06:11 40.90062 -111.98877 6463 ft 390 kts 178°
2026-05-08 06:11 40.87429 -111.98695 5814 ft 359 kts 175°
2026-05-08 06:11 40.85098 -111.98373 5236 ft 326 kts 173°
2026-05-08 06:11 40.82909 -111.97955 4610 ft 313 kts 171°
2026-05-08 06:12 40.80787 -111.97681 4313 ft 294 kts 178°
2026-05-08 06:12 40.78860 -111.97464 4244 ft 257 kts 176°
2026-05-08 06:12 40.78533 -111.97449 4267 ft 229 kts 174°
2026-05-08 06:12 40.77927 -111.97346 4260 ft 1 kts 191°
2026-05-08 06:13 40.77924 -111.97347 4260 ft 2 kts 191°
2026-05-08 06:13 40.77815 -111.97360 4261 ft 22 kts 179°
2026-05-08 06:13 40.77658 -111.97341 4261 ft 23 kts 171°
2026-05-08 06:13 40.77568 -111.97435 4262 ft 16 kts 277°
2026-05-08 06:14 40.77610 -111.97490 4263 ft 6 kts 343°
2026-05-08 06:14 40.77661 -111.97505 4263 ft 9 kts 349°
2026-05-08 06:14 40.77735 -111.97516 4262 ft 12 kts 354°
2026-05-08 06:14 40.77832 -111.97529 4262 ft 16 kts 354°
2026-05-08 06:15 40.77856 -111.97532 4262 ft 0 kts 354°
2026-05-08 06:17 40.77905 -111.97554 4261 ft 3 kts 326°
2026-05-08 06:18 40.77957 -111.97586 4262 ft 10 kts 348°
2026-05-08 06:18 40.78063 -111.97602 4262 ft 16 kts 355°
2026-05-08 06:18 40.78170 -111.97614 4240 ft 16 kts 355°
2026-05-08 06:18 40.78279 -111.97627 4240 ft 16 kts 355°
2026-05-08 06:19 40.78387 -111.97639 4240 ft 16 kts 355°
2026-05-08 06:19 40.78495 -111.97652 4240 ft 16 kts 355°
2026-05-08 06:19 40.78576 -111.97661 4241 ft 11 kts 355°
2026-05-08 06:19 40.78683 -111.97672 4240 ft 15 kts 355°
2026-05-08 06:20 40.78749 -111.97708 4240 ft 15 kts 297°
2026-05-08 06:20 40.78780 -111.97773 4241 ft 7 kts 336°
2026-05-08 06:20 40.78820 -111.97805 4241 ft 9 kts 300°
2026-05-08 06:20 40.78822 -111.97887 4241 ft 7 kts 259°
2026-05-08 06:21 40.78812 -111.97999 4241 ft 16 kts 264°
2026-05-08 06:21 40.78801 -111.98140 4241 ft 12 kts 264°
2026-05-08 06:21 40.78794 -111.98247 4241 ft 16 kts 264°
2026-05-08 06:21 40.78785 -111.98375 4241 ft 4 kts 264°
2026-05-08 06:22 40.78777 -111.98443 4241 ft 10 kts 239°
2026-05-08 06:22 40.78705 -111.98463 4241 ft 11 kts 172°
2026-05-08 06:22 40.78667 -111.98453 4241 ft 6 kts 166°
2026-05-08 06:22 40.78629 -111.98439 4241 ft 6 kts 165°
2026-05-08 06:23 40.78621 -111.98436 4241 ft 0 kts 165°